Notices

What's New in latest Release from April 7th, 2021:

- Updated Glossary, including Speed of Maximum Gust, and Total Hourly Precipitation

- Updated national and regional climate services offices contacts and prices information

- Addition of station inventory lists for 1981-2010, 1971-2000, and 1961-1990 Normals.

If you haven't already, please take our survey and provide feedback about our website: https://eccc.sondage-survey.ca/f/LanguageSelection.aspx?s=442ca660-fcf1-47c0-95a9-59707d6fd709

Hourly Data Report for July 10, 2019

TORONTO CITY
ONTARIO
Current Station Operator: ECCC - MSC

43°40'00.000" N
79°24'00.000" W
112.50 m
6158355
71508
XTO

Download Data

Hourly Data (July 2019)
Hourly Data Report for July 10, 2019
TIME
LST
Temp Definition
°C
Dew Point Definition
°C
Rel Hum Definition
%
Precip. Amount Definition
mm

Wind Dir Definition
10's deg

Wind Spd Definition
km/h
Visibility Definition
km
Stn Press Definition
kPa
Hmdx Definition


Wind Chill Definition


Weather Definition


00:00 18.8 10.0 57 0.0       100.32     LegendNANA
01:00 18.4 13.1 71 0.0       100.31     LegendNANA
02:00 18.5 14.7 79 0.0       100.28     LegendNANA
03:00 18.2 14.2 78 0.0       100.26     LegendNANA
04:00 18.1 13.9 76 0.0       100.25     LegendNANA
05:00 17.6 12.8 74 0.0       100.28     LegendNANA
06:00 18.4 12.5 69 0.0       100.29     LegendNANA
07:00 21.0 12.1 57 0.0       100.33     LegendNANA
08:00 23.5 11.1 46 0.0       100.29 25   LegendNANA
09:00 24.9 10.0 39 0.0       100.29 26   LegendNANA
10:00 25.7 10.5 38 0.0       100.25 27   LegendNANA
11:00 26.1 10.5 37 0.0       100.23 28   LegendNANA
12:00 25.7 11.2 40 0.0       100.20 28   LegendNANA
13:00 26.2 10.7 38 0.0       100.14 28   LegendNANA
14:00 28.3 13.8 41 0.0       100.07 32   LegendNANA
15:00 28.6 13.9 41 0.0       100.02 32   LegendNANA
16:00 28.3 15.3 45 0.0       99.98 32   LegendNANA
17:00 26.4 14.7 49 0.0       99.94 30   LegendNANA
18:00 25.3 14.6 52 0.0       99.90 29   LegendNANA
19:00 25.0 14.2 51 0.0       99.90 28   LegendNANA
20:00 24.5 14.8 55 0.0       99.85 28   LegendNANA
21:00 24.1 16.4 62 0.0       99.88 29   LegendNANA
22:00 24.8 17.5 64 0.0       99.83 30   LegendNANA
23:00 24.3 17.8 67 0.0       99.69 30   LegendNANA

Notes on Data Quality.

Legend

  • E = Estimated
  • M = Missing
  • NA = Not Available*
  • [empty] = Indicates an unobserved value
Date modified: